1499389201.23,64683,17.06,74274.0,0.79,-24.51,-26.71,0,*4C
1499389202.43,64684,17.06,74278.3,0.77,-24.57,-26.87,0,*4A
1499389203.68,64685,17.06,74278.5,0.79,-24.57,-26.71,0,*4C
1499389204.91,64686,17.06,74282.0,0.79,-24.57,-26.87,0,*46
1499389206.13,64687,17.06,74284.8,0.77,-24.67,-26.87,0,*4A
1499389207.36,64688,17.06,74278.0,0.77,-24.57,-26.93,0,*43
1499389208.59,64689,17.06,74280.5,0.77,-24.41,-26.65,0,*4C
1499389209.84,64690,17.06,74282.8,0.77,-24.67,-26.81,0,*4A
1499389211.06,64691,17.06,74282.5,0.77,-24.67,-26.87,0,*4D
1499389212.31,64692,17.06,74282.5,0.77,-24.67,-26.97,0,*4F
1499389213.54,64693,17.06,74284.5,0.77,-24.87,-27.29,0,*44
1499389214.74,64694,17.06,74282.0,0.77,-24.97,-27.29,0,*42
1499389215.99,64695,17.06,74282.5,0.77,-25.03,-27.39,0,*4E
1499389217.19,64696,17.06,74286.8,0.77,-25.19,-27.67,0,*4D
1499389218.38,64697,17.06,74284.0,0.77,-25.19,-27.71,0,*4B
1499389219.61,64698,17.06,74286.3,0.77,-25.49,-27.99,0,*47
1499389220.83,64699,17.06,74282.0,0.77,-25.39,-27.83,0,*4A
1499389222.03,64700,17.06,74272.5,0.77,-25.23,-27.71,0,*4D
1499389223.21,64701,17.06,74266.0,0.73,-25.09,-27.51,0,*42
1499389224.43,64702,17.06,74264.0,0.73,-25.55,-27.71,0,*4A
1499389225.61,64703,17.06,74264.5,0.73,-25.61,-27.89,0,*4B
1499389226.81,64704,17.06,74266.3,0.77,-25.49,-27.71,0,*45
1499389228.01,64705,17.06,74268.5,0.77,-25.39,-27.89,0,*44
1499389229.22,64706,17.06,74274.5,0.77,-25.65,-28.15,0,*44
1499389230.46,64707,17.06,74278.8,0.73,-25.75,-28.21,0,*47
1499389231.67,64708,17.06,74278.0,0.73,-25.61,-28.21,0,*4D
1499389232.91,64709,17.06,74278.0,0.73,-25.75,-28.43,0,*4D
1499389234.14,64710,17.06,74280.8,0.73,-25.75,-28.43,0,*45
1499389235.33,64711,17.06,74280.8,0.73,-25.87,-28.37,0,*4A
1499389236.59,64712,17.06,74290.8,0.67,-26.13,-28.47,0,*45
1499389237.81,64713,17.06,74288.5,0.69,-25.91,-28.25,0,*47
1499389239.0,64714,17.06,74284.0,0.69,-25.91,-28.31,0,*45
1499389240.21,64715,17.06,74286.8,0.69,-25.91,-28.43,0,*41
1499389241.45,64716,17.06,74286.5,0.69,-25.97,-28.47,0,*40
1499389242.69,64717,17.06,74284.0,0.67,-25.97,-28.53,0,*4A
1499389243.94,64718,17.06,74286.8,0.67,-25.97,-28.37,0,*47
1499389245.18,64719,17.06,74272.5,0.67,-25.97,-28.37,0,*46
1499389246.45,64720,17.06,74272.0,0.67,-25.97,-28.47,0,*4B
1499389247.66,64721,17.06,74282.5,0.65,-25.87,-28.47,0,*49
1499389248.88,64722,17.06,74288.5,0.65,-25.97,-28.31,0,*4A
1499389250.09,64723,17.06,74284.0,0.65,-25.87,-28.47,0,*4B
1499389251.3,64724,17.06,74296.0,0.65,-25.87,-28.21,0,*4C
1499389252.52,64725,17.06,74298.3,0.63,-25.87,-28.31,0,*4A
1499389253.74,64726,17.06,74292.5,0.65,-25.49,-28.05,0,*4A
1499389254.95,64727,17.06,74288.3,0.63,-25.19,-27.55,0,*42
1499389256.14,64728,17.06,74290.0,0.65,-25.13,-27.55,0,*41
1499389257.34,64729,17.06,74290.0,0.65,-25.29,-27.71,0,*4F
1499389258.58,64730,17.06,74284.0,0.65,-25.81,-28.21,0,*4F
1499389259.85,64731,17.06,74284.5,0.63,-25.71,-28.21,0,*47
1499389261.07,64732,17.06,74286.3,0.63,-25.39,-27.71,0,*42
1499389262.28,64733,17.06,74280.0,0.65,-24.87,-27.29,0,*4C
1499389263.51,64734,17.06,74282.5,0.65,-25.03,-27.45,0,*4C
1499389264.75,64735,17.06,74280.0,0.65,-25.03,-27.35,0,*4A
1499389265.99,64736,17.06,74282.0,0.65,-24.83,-27.19,0,*4E
1499389267.21,64737,17.06,74284.8,0.65,-24.05,-26.33,0,*48
1499389268.42,64738,17.06,74280.0,0.73,-22.83,-25.29,0,*40
1499389269.66,64739,17.06,74280.3,0.73,-22.77,-25.03,0,*42
1499389270.89,64740,17.06,74280.3,0.77,-22.41,-24.71,0,*49
1499389272.09,64741,17.06,74278.5,0.81,-22.27,-24.61,0,*40
1499389273.32,64742,17.06,74276.0,0.81,-23.19,-25.35,0,*4F
1499389274.58,64743,17.06,74270.3,0.81,-23.85,-26.13,0,*4C
1499389275.84,64744,17.06,74256.3,0.83,-24.47,-26.81,0,*4B
1499389277.06,64745,17.06,74252.3,0.83,-24.93,-27.29,0,*40
1499389278.31,64746,17.06,74252.8,0.83,-25.19,-27.45,0,*4A
1499389279.54,64747,17.06,74256.8,0.83,-25.61,-27.93,0,*4F
1499389280.79,64748,17.06,74264.8,0.83,-25.49,-27.83,0,*4B
1499389281.99,64749,17.06,74262.5,0.81,-25.35,-27.67,0,*49
1499389283.24,64750,17.06,74266.0,0.79,-25.49,-27.83,0,*47
1499389284.47,64751,17.06,74262.8,0.79,-25.23,-27.55,0,*41
1499389285.69,64752,17.06,74264.5,0.79,-25.23,-27.55,0,*42
1499389286.9,64753,17.06,74266.8,0.81,-25.09,-27.45,0,*4D
1499389288.13,64754,17.06,74268.8,0.79,-25.13,-27.51,0,*43
1499389289.36,64755,17.06,74266.3,0.81,-24.97,-27.35,0,*4A
1499389290.61,64756,17.06,74268.5,0.79,-25.13,-27.39,0,*4F
1499389291.85,64757,17.06,74264.5,0.79,-24.93,-27.35,0,*4B
1499389293.14,64758,17.06,74260.5,0.79,-24.83,-26.97,0,*4C
1499389294.36,64759,17.06,74252.0,0.81,-24.67,-27.07,0,*48
1499389295.57,64760,17.06,74250.3,0.81,-24.35,-26.49,0,*4E
1499389296.82,64761,17.06,74252.8,0.81,-24.83,-27.23,0,*4F
1499389298.02,64762,17.06,74264.8,0.81,-24.93,-27.29,0,*47
1499389299.22,64763,17.06,74270.5,0.81,-24.97,-27.29,0,*42
1499389300.45,64764,17.06,74270.0,0.83,-25.09,-27.07,0,*4D
1499389301.69,64765,17.06,74264.3,0.83,-24.51,-27.07,0,*40
1499389302.9,64766,17.06,74270.5,0.81,-24.61,-27.29,0,*4E
1499389304.15,64767,17.06,74266.8,0.83,-25.09,-27.35,0,*4F
1499389305.38,64768,17.06,74262.3,0.83,-24.77,-27.13,0,*4C
1499389306.61,64769,17.06,74266.0,0.83,-24.77,-27.07,0,*48
1499389307.86,64770,17.06,74262.0,0.83,-24.93,-27.35,0,*4B
1499389309.06,64771,17.06,74262.8,0.85,-25.19,-27.51,0,*4D
1499389310.28,64772,17.06,74262.0,0.83,-25.19,-27.51,0,*48
1499389311.5,64773,17.06,74260.8,0.85,-25.09,-27.45,0,*4B
1499389312.75,64774,17.06,74262.5,0.83,-24.97,-27.35,0,*4B
1499389313.98,64775,17.06,74262.0,0.85,-24.97,-27.35,0,*4C
1499389315.18,64776,17.06,74260.3,0.85,-24.77,-27.07,0,*40
1499389316.44,64777,17.06,74262.3,0.83,-24.83,-27.13,0,*49
1499389317.69,64778,17.06,74262.8,0.85,-24.87,-27.19,0,*4E
1499389318.91,64779,17.06,74264.8,0.85,-25.23,-27.39,0,*42
1499389320.14,64780,17.06,74264.8,0.85,-25.03,-27.55,0,*4C
1499389321.4,64781,17.06,74262.5,0.85,-24.71,-27.19,0,*41
1499389322.6,64782,17.06,74264.5,0.85,-24.93,-27.29,0,*4D
1499389323.84,64783,17.06,74266.3,0.85,-24.87,-27.23,0,*43
1499389325.08,64784,17.06,74262.8,0.85,-25.03,-27.29,0,*43
1499389326.28,64785,17.06,74268.5,0.85,-24.31,-26.45,0,*49
1499389327.51,64786,17.06,74270.3,0.89,-23.59,-25.75,0,*4F
1499389328.8,64787,17.06,74274.5,0.87,-23.29,-25.55,0,*45
1499389329.99,64788,17.06,74268.5,0.89,-21.39,-23.39,0,*4B
1499389331.22,64789,17.06,74254.5,0.93,-21.93,-23.99,0,*4B
1499389332.44,64790,17.06,74264.5,0.99,-22.83,-24.97,0,*42
1499389333.7,64791,17.06,74262.3,0.99,-23.95,-26.23,0,*48
1499389334.93,64792,17.06,74256.5,0.99,-23.75,-25.91,0,*4F
1499389336.16,64793,17.06,74262.5,1.03,-22.93,-25.09,0,*74
1499389337.39,64794,17.06,74276.5,1.03,-23.39,-25.65,0,*78
1499389338.66,64795,17.06,74268.3,1.03,-23.43,-25.55,0,*77
1499389339.92,64796,17.06,74262.0,1.07,-22.11,-24.21,0,*74
1499389341.18,64797,17.06,74266.3,1.07,-21.77,-23.85,0,*7F
1499389342.43,64798,17.06,74272.8,1.09,-22.63,-24.83,0,*79
1499389343.7,64799,17.06,74272.3,1.13,-23.29,-25.49,0,*7B
1499389344.94,64800,17.06,74272.8,1.13,-23.75,-26.03,0,*70
1499389346.2,64801,17.06,74266.5,1.13,-23.89,-26.17,0,*77
1499389347.44,64802,17.06,74260.0,1.15,-24.21,-26.39,0,*7B
1499389348.7,64803,17.06,74256.5,1.15,-23.53,-25.81,0,*78
1499389349.94,64804,17.06,74264.5,1.13,-24.35,-26.65,0,*77
1499389351.18,64805,17.06,74262.5,1.15,-24.47,-26.77,0,*76
1499389352.44,64806,17.06,74266.5,1.13,-24.87,-27.07,0,*79
1499389353.7,64807,17.06,74260.5,1.13,-24.87,-27.03,0,*7C
1499389354.98,64808,17.06,74264.3,1.13,-24.87,-26.93,0,*7B
1499389356.24,64809,17.06,74272.3,1.13,-25.03,-27.67,0,*7D
1499389357.49,64810,17.06,74278.0,1.13,-25.35,-27.83,0,*7A
1499389358.72,64811,17.06,74276.0,1.13,-25.19,-27.51,0,*7A
1499389359.95,64812,17.06,74274.0,1.13,-25.35,-27.71,0,*75
1499389361.18,64813,17.06,74272.5,1.11,-25.19,-27.35,0,*78
1499389362.42,64814,17.06,74268.3,1.11,-24.71,-27.07,0,*71
1499389363.62,64815,17.06,74266.0,1.11,-25.19,-27.55,0,*78
1499389364.82,64816,17.06,74258.5,1.11,-25.35,-27.55,0,*75
1499389366.07,64817,17.06,74252.0,1.09,-25.45,-27.89,0,*7B
1499389367.3,64818,17.06,74244.3,1.11,-25.65,-27.99,0,*7E
1499389368.56,64819,17.06,74262.0,1.11,-25.81,-28.09,0,*73
1499389369.81,64820,17.06,74268.8,1.09,-25.91,-28.25,0,*7F
1499389371.07,64821,17.06,74260.8,1.09,-25.61,-28.05,0,*73
1499389372.32,64822,17.06,74264.8,1.09,-25.61,-28.05,0,*70
1499389373.58,64823,17.06,74264.3,1.07,-25.91,-28.21,0,*76
1499389374.79,64824,17.06,74266.5,1.05,-25.91,-28.37,0,*74
1499389375.99,64825,17.06,74270.3,1.05,-25.91,-28.37,0,*75
1499389377.22,64826,17.06,74276.5,1.07,-25.91,-28.31,0,*72
1499389378.45,64827,17.06,74276.8,1.07,-25.91,-28.37,0,*75
1499389379.69,64828,17.06,74284.3,1.05,-25.61,-28.21,0,*70
1499389380.92,64829,17.06,74270.3,1.05,-25.49,-27.99,0,*77
1499389382.18,64830,17.06,74274.5,1.05,-25.75,-27.99,0,*70
1499389383.43,64831,17.06,74280.5,1.05,-25.75,-28.09,0,*77
1499389384.72,64832,17.06,74280.3,1.03,-25.55,-27.99,0,*76
1499389386.0,64833,17.06,74278.5,1.03,-25.55,-27.99,0,*77
1499389387.26,64834,17.06,74274.8,1.03,-25.49,-27.83,0,*76
1499389388.48,64835,17.06,74280.5,1.03,-25.23,-27.55,0,*70
1499389389.7,64836,17.06,74280.3,1.03,-25.19,-27.55,0,*7A
1499389390.96,64837,17.06,74282.0,1.03,-25.49,-27.83,0,*75
1499389392.18,64838,17.06,74278.8,1.03,-25.39,-27.71,0,*70
1499389393.43,64839,17.06,74278.3,1.03,-25.09,-27.39,0,*7E
1499389394.68,64840,17.06,74288.0,1.03,-24.93,-27.23,0,*79
1499389395.87,64841,17.06,74270.8,1.05,-25.35,-27.77,0,*72
1499389397.07,64842,17.06,74266.8,1.05,-25.19,-27.51,0,*7B
1499389398.31,64843,17.06,74272.8,1.05,-25.13,-27.35,0,*72
1499389399.55,64844,17.06,74278.3,1.09,-25.23,-27.45,0,*7D
1499389400.77,64845,17.06,74272.5,1.05,-25.45,-27.77,0,*71
1499389401.97,64846,17.0,74268.8,1.05,-25.35,-27.77,0,*75
1499389403.2,64847,17.06,74272.8,1.05,-25.13,-27.45,0,*71
1499389404.45,64848,17.06,74276.0,1.05,-24.67,-26.93,0,*76
1499389405.68,64849,17.06,74276.5,1.05,-24.61,-26.93,0,*71
1499389406.94,64850,17.06,74270.0,1.07,-24.67,-27.03,0,*75
1499389408.22,64851,17.0,74274.8,1.07,-24.87,-27.19,0,*71
1499389409.45,64852,17.06,74282.3,1.07,-25.35,-27.77,0,*72
1499389410.73,64853,17.0,74276.0,1.07,-25.45,-27.83,0,*7F
1499389411.96,64854,17.06,74276.0,1.07,-25.19,-27.51,0,*7E
1499389413.24,64855,17.06,74278.5,1.07,-24.67,-26.97,0,*7C
1499389414.49,64856,17.06,74270.3,1.07,-25.19,-27.45,0,*79
1499389415.74,64857,17.0,74274.8,1.07,-25.19,-27.45,0,*78
1499389416.99,64858,17.06,74270.3,1.07,-25.19,-27.45,0,*77
1499389418.24,64859,17.06,74274.0,1.09,-24.97,-27.23,0,*7F
1499389419.46,64860,17.06,74274.5,1.09,-24.93,-27.29,0,*7B
1499389420.69,64861,17.06,74272.0,1.09,-24.93,-27.29,0,*7A
1499389421.93,64862,17.06,74262.8,1.09,-24.93,-27.23,0,*73
1499389423.19,64863,17.06,74264.8,1.09,-24.57,-26.93,0,*70
1499389424.42,64864,17.06,74268.5,1.11,-24.57,-26.93,0,*7E
1499389425.65,64865,17.0,74266.3,1.09,-24.77,-27.13,0,*7D
1499389426.88,64866,17.06,74264.3,1.11,-24.67,-27.03,0,*77
1499389428.12,64867,17.06,74266.8,1.11,-24.51,-26.71,0,*77
1499389429.36,64868,17.06,74260.3,1.11,-24.71,-27.07,0,*7A
1499389430.57,64869,17.06,74270.5,1.11,-24.57,-27.03,0,*7B
1499389431.82,64870,17.06,74272.5,1.13,-23.69,-25.87,0,*75
1499389433.07,64871,17.0,74262.5,1.15,-24.51,-26.77,0,*72
1499389434.3,64872,17.06,74266.3,1.13,-24.77,-26.87,0,*7C
1499389435.57,64873,17.06,74258.8,1.15,-24.71,-26.77,0,*72
1499389436.8,64874,17.06,74250.3,1.15,-25.03,-26.87,0,*7E
1499389438.06,64875,17.0,74238.8,1.15,-25.29,-27.19,0,*71
1499389439.31,64876,17.06,74254.5,1.13,-25.19,-27.19,0,*77
1499389440.55,64877,17.06,74262.0,1.15,-25.13,-27.35,0,*74
1499389441.76,64878,17.06,74254.3,1.15,-24.61,-26.65,0,*7B
1499389442.99,64879,17.06,74260.0,1.13,-24.77,-26.49,0,*75
1499389444.2,64880,17.0,74258.5,1.15,-24.61,-25.87,0,*73
1499389445.47,64881,17.06,74262.3,1.15,-24.71,-25.97,0,*72
1499389446.72,64882,17.06,74268.0,1.15,-24.35,-25.75,0,*7D
1499389447.98,64883,17.06,74266.0,1.15,-24.21,-25.81,0,*72
1499389449.21,64884,17.06,74274.5,1.15,-23.69,-26.49,0,*79
1499389450.46,64885,17.06,74272.0,1.17,-24.35,-26.97,0,*77
1499389451.72,64886,17.06,74272.0,1.21,-24.57,-26.77,0,*7B
1499389452.95,64887,17.06,74278.8,1.17,-24.47,-26.65,0,*7D
1499389454.22,64888,17.06,74274.0,1.21,-24.47,-26.81,0,*7D
1499389455.5,64889,17.06,74268.3,1.21,-24.83,-27.23,0,*7D
1499389456.77,64890,17.06,74274.5,1.21,-24.83,-26.93,0,*7F
1499389458.06,64891,17.06,74270.3,1.21,-24.83,-26.81,0,*7D
1499389459.31,64892,17.06,74272.0,1.21,-25.13,-27.23,0,*7F
1499389460.56,64893,17.06,74268.3,1.17,-25.29,-27.67,0,*72
1499389461.81,64894,17.06,74282.5,1.17,-25.29,-27.71,0,*72
1499389463.06,64895,17.06,74286.8,1.21,-25.55,-27.71,0,*7D
1499389464.29,64896,17.06,74284.5,1.17,-25.61,-27.77,0,*7A
1499389465.55,64897,17.06,74280.8,1.17,-25.65,-27.61,0,*78
1499389466.78,64898,17.06,74284.0,1.17,-25.49,-27.29,0,*75
1499389468.01,64899,17.06,74284.5,1.17,-25.49,-27.13,0,*7D
1499389469.24,64900,17.06,74280.0,1.17,-25.35,-27.29,0,*7E
1499389470.46,64901,17.06,74280.0,1.17,-25.19,-27.77,0,*7A
1499389471.69,64902,17.06,74280.3,1.15,-25.35,-28.05,0,*7F
1499389472.93,64903,17.06,74280.0,1.15,-25.65,-28.21,0,*7D
1499389474.14,64904,17.0,74274.5,1.15,-25.87,-28.31,0,*77
1499389475.36,64905,17.06,74274.0,1.15,-26.03,-28.53,0,*7D
1499389476.62,64906,17.06,74266.3,1.13,-26.07,-28.43,0,*7D
1499389477.88,64907,17.06,74266.3,1.13,-26.07,-28.59,0,*77
1499389479.16,64908,17.06,74268.3,1.13,-26.17,-28.59,0,*79
1499389480.42,64909,17.06,74278.5,1.13,-26.07,-28.59,0,*79
1499389481.68,64910,17.0,74268.5,1.11,-26.17,-28.43,0,*79
1499389482.96,64911,17.06,74266.5,1.09,-26.13,-28.47,0,*71
1499389484.17,64912,17.06,74276.0,1.11,-26.03,-28.53,0,*7F
1499389485.42,64913,17.0,74272.5,1.09,-26.07,-28.47,0,*76
1499389486.7,64914,17.06,74272.8,1.07,-26.13,-28.47,0,*7A
1499389487.96,64915,17.06,74282.0,1.09,-26.07,-28.47,0,*70
1499389489.23,64916,17.06,74280.0,1.09,-26.13,-28.47,0,*76
1499389490.49,64917,17.06,74280.5,1.09,-26.07,-28.43,0,*76
1499389491.74,64918,17.06,74280.0,1.09,-25.87,-28.05,0,*70
1499389493.0,64919,17.06,74278.8,1.09,-25.55,-27.93,0,*7E
1499389494.24,64920,17.06,74276.3,1.07,-25.49,-27.93,0,*77
1499389495.47,64921,17.0,74274.5,1.07,-25.49,-27.77,0,*7C
1499389496.73,64922,17.06,74280.0,1.07,-25.45,-27.67,0,*72
1499389497.96,64923,17.06,74278.3,1.07,-25.49,-27.93,0,*74
1499389499.22,64924,17.06,74280.0,1.07,-25.65,-28.09,0,*71
1499389500.45,64925,17.0,74274.8,1.07,-25.35,-27.67,0,*72
1499389501.73,64926,17.06,74272.8,1.07,-25.29,-27.61,0,*7A
1499389502.96,64927,17.06,74274.0,1.09,-25.39,-27.77,0,*73
1499389504.21,64928,17.06,74266.8,1.09,-25.45,-27.89,0,*76
1499389505.49,64929,17.0,74266.0,1.09,-25.71,-28.05,0,*7B
1499389506.75,64930,17.06,74260.0,1.11,-25.81,-28.21,0,*73
1499389508.01,64931,17.06,74268.8,1.09,-25.75,-28.15,0,*77
1499389509.24,64932,17.06,74274.3,1.09,-25.91,-28.31,0,*78
1499389510.5,64933,17.06,74268.3,1.09,-25.87,-28.25,0,*7B
1499389511.75,64934,17.06,74272.0,1.09,-25.45,-27.89,0,*7B
1499389512.95,64935,17.06,74278.5,1.11,-25.35,-27.55,0,*75
1499389514.18,64936,17.06,74276.3,1.09,-25.39,-27.71,0,*75
1499389515.43,64937,17.06,74280.5,1.09,-25.39,-27.61,0,*75
1499389516.66,64938,17.06,74274.8,1.09,-25.39,-27.71,0,*7B
1499389517.92,64939,17.0,74268.8,1.09,-25.55,-27.93,0,*7C
1499389519.13,64940,17.0,74266.8,1.11,-25.49,-27.89,0,*7D
1499389520.39,64941,17.06,74272.5,1.09,-25.55,-27.89,0,*78
1499389521.64,64942,17.06,74280.5,1.09,-25.39,-27.61,0,*77
1499389522.87,64943,17.06,74274.3,1.11,-25.49,-27.83,0,*74
1499389524.11,64944,17.06,74270.5,1.09,-25.49,-27.89,0,*70
1499389525.33,64945,17.06,74272.0,1.09,-25.39,-27.55,0,*77
1499389526.54,64946,17.06,74270.3,1.11,-25.35,-27.67,0,*70
1499389527.79,64947,17.06,74276.5,1.11,-25.03,-27.19,0,*7D
1499389529.0,64948,17.06,74274.8,1.11,-24.77,-27.03,0,*7B
1499389530.21,64949,17.06,74280.0,1.11,-24.57,-26.87,0,*75
1499389531.45,64950,17.06,74278.3,1.11,-24.71,-27.03,0,*74
1499389532.66,64951,17.06,74276.8,1.11,-24.77,-27.07,0,*77
1499389533.92,64952,17.0,74278.5,1.13,-24.67,-26.87,0,*7E
1499389535.18,64953,17.06,74282.0,1.13,-24.35,-26.55,0,*77
1499389536.39,64954,17.06,74290.3,1.15,-24.35,-26.65,0,*75
1499389537.63,64955,17.06,74288.5,1.15,-24.83,-27.13,0,*79
1499389538.88,64956,17.06,74270.8,1.17,-25.19,-27.61,0,*7F
1499389540.13,64957,17.06,74262.3,1.17,-25.61,-27.83,0,*7D
1499389541.41,64958,17.06,74274.8,1.17,-25.75,-28.05,0,*76
1499389542.62,64959,17.06,74282.8,1.15,-25.35,-27.77,0,*7B
1499389543.85,64960,17.06,74272.5,1.15,-25.13,-27.45,0,*74
1499389545.1,64961,17.06,74270.3,1.17,-25.49,-27.83,0,*72
1499389546.36,64962,17.06,74266.3,1.17,-25.49,-27.83,0,*71
1499389547.58,64963,17.06,74268.8,1.17,-25.61,-27.93,0,*7B
1499389548.81,64964,17.06,74266.5,1.17,-25.49,-27.93,0,*76
1499389550.04,64965,17.06,74262.5,1.17,-25.49,-27.93,0,*77
1499389551.29,64966,17.06,74266.8,1.15,-25.45,-27.83,0,*7B
1499389552.52,64967,17.06,74266.8,1.13,-25.39,-27.71,0,*7A
1499389553.79,64968,17.06,74274.3,1.21,-25.29,-27.45,0,*72
1499389555.04,64969,17.06,74272.5,1.17,-25.35,-27.61,0,*7D
1499389556.25,64970,17.06,74278.5,1.15,-25.13,-27.29,0,*7F
1499389557.52,64971,17.06,74272.3,1.15,-25.03,-27.35,0,*72
1499389558.76,64972,17.0,74276.0,1.17,-25.13,-27.45,0,*75
1499389560.01,64973,17.06,74278.3,1.17,-25.13,-27.45,0,*74
1499389561.25,64974,17.06,74276.5,1.15,-25.49,-27.83,0,*74
1499389562.5,64975,17.06,74274.5,1.17,-25.49,-27.83,0,*77
1499389563.71,64976,17.06,74274.3,1.15,-25.61,-27.77,0,*77
1499389564.95,64977,17.06,74276.5,1.15,-25.49,-27.61,0,*7B
1499389566.18,64978,17.06,74274.8,1.15,-25.49,-27.45,0,*72
1499389567.4,64979,17.06,74276.8,1.15,-25.49,-27.29,0,*79
1499389568.61,64980,17.06,74274.5,1.15,-25.61,-27.03,0,*7D
1499389569.81,64981,17.0,74270.0,1.15,-25.35,-26.87,0,*70
1499389571.05,64982,17.06,74262.8,1.15,-25.13,-26.77,0,*78
1499389572.28,64983,17.06,74262.8,1.15,-25.29,-27.03,0,*72
1499389573.53,64984,17.06,74268.0,1.17,-25.35,-26.77,0,*78
1499389574.79,64985,17.06,74244.3,1.13,-25.39,-26.17,0,*77
1499389576.05,64986,17.06,74256.0,1.15,-25.03,-25.81,0,*77
1499389577.27,64987,17.0,74254.0,1.15,-24.47,-25.49,0,*73
1499389578.56,64988,17.06,74258.3,1.13,-24.25,-26.55,0,*70
1499389579.82,64989,17.06,74270.3,1.13,-24.57,-27.23,0,*74
1499389581.08,64990,17.06,74278.8,1.13,-24.51,-27.19,0,*73
1499389582.33,64991,17.06,74270.8,1.13,-25.23,-28.09,0,*78
1499389583.62,64992,17.06,74270.0,1.13,-25.81,-27.99,0,*75
1499389584.88,64993,17.06,74258.5,1.11,-25.81,-27.99,0,*76
1499389586.14,64994,17.0,74264.5,1.13,-26.07,-28.21,0,*72
1499389587.4,64995,17.06,74262.8,1.13,-26.07,-28.21,0,*73
1499389588.64,64996,17.06,74256.8,1.13,-26.03,-28.37,0,*73
1499389589.89,64997,17.06,74256.3,1.13,-26.07,-28.43,0,*75
1499389591.15,64998,17.06,74264.8,1.11,-26.13,-28.59,0,*76
1499389592.35,64999,17.06,74264.8,1.11,-26.23,-28.69,0,*77
1499389593.6,65000,17.06,74284.3,1.09,-26.23,-28.63,0,*7C
1499389594.88,65001,17.0,74272.3,1.09,-26.13,-28.59,0,*77
1499389596.14,65002,17.06,74266.0,1.09,-26.23,-28.59,0,*77
1499389597.39,65003,17.06,74266.8,1.09,-26.23,-28.59,0,*76
1499389598.64,65004,17.06,74266.5,1.09,-26.23,-28.63,0,*78
1499389599.92,65005,17.06,74272.0,1.09,-26.13,-28.59,0,*73
1499389601.18,65006,17.06,74282.0,1.07,-26.29,-28.69,0,*74
1499389602.43,65007,17.06,74284.5,1.07,-26.29,-28.69,0,*75
1499389603.66,65008,17.06,74280.5,1.05,-26.13,-28.53,0,*78
1499389604.89,65009,17.06,74284.8,1.05,-25.97,-28.37,0,*74
1499389606.15,65010,17.06,74292.5,1.05,-25.81,-28.09,0,*76
1499389607.38,65011,17.06,74292.3,1.05,-25.65,-27.99,0,*7B
1499389608.63,65012,17.0,74280.3,1.07,-25.29,-27.51,0,*76
1499389609.86,65013,17.06,74274.5,1.05,-25.29,-27.51,0,*75
1499389611.14,65014,17.06,74276.3,1.07,-25.81,-28.09,0,*70
1499389612.34,65015,17.06,74282.3,1.05,-25.91,-28.37,0,*7F
1499389613.61,65016,17.0,74278.5,1.07,-25.97,-28.31,0,*7E
1499389614.89,65017,17.06,74280.5,1.07,-25.81,-28.09,0,*73
1499389616.12,65018,17.06,74278.8,1.05,-25.91,-28.09,0,*7F
1499389617.32,65019,17.06,74278.3,1.05,-25.65,-27.93,0,*79
1499389618.58,65020,17.06,74282.0,1.07,-25.65,-27.83,0,*70
1499389619.79,65021,17.0,74276.3,1.05,-25.49,-27.67,0,*77
1499389621.03,65022,17.0,74280.0,1.09,-25.45,-27.55,0,*75
1499389622.29,65023,17.06,74286.0,1.07,-25.29,-27.51,0,*74
1499389623.52,65024,17.0,74276.5,1.07,-25.35,-27.51,0,*7E
1499389624.78,65025,17.06,74274.0,1.09,-25.55,-27.71,0,*75
1499389626.0,65026,17.06,74282.3,1.05,-25.61,-27.83,0,*70
1499389627.21,65027,17.0,74280.5,1.05,-25.49,-27.93,0,*7A
1499389628.47,65028,17.06,74276.5,1.07,-25.19,-27.61,0,*7F
1499389629.71,65029,17.06,74276.5,1.05,-25.45,-27.83,0,*79
1499389630.97,65030,17.0,74274.3,1.07,-25.49,-27.83,0,*7F
1499389632.23,65031,17.06,74274.5,1.07,-25.65,-27.99,0,*7B
1499389633.49,65032,17.0,74272.5,1.05,-25.75,-27.99,0,*7B
1499389634.72,65033,17.06,74278.8,1.05,-25.91,-27.99,0,*70
1499389635.98,65034,17.06,74282.8,1.07,-25.91,-28.09,0,*73
1499389637.2,65035,17.06,74282.8,1.05,-25.91,-28.09,0,*70
1499389638.43,65036,17.06,74278.0,1.07,-25.61,-27.77,0,*78
1499389639.69,65037,17.06,74276.3,1.05,-25.75,-27.99,0,*7E
1499389640.89,65038,17.06,74282.0,1.05,-25.65,-27.93,0,*7A
1499389642.13,65039,17.0,74272.0,1.05,-25.49,-27.83,0,*74
1499389643.38,65040,17.06,74282.3,1.05,-25.75,-27.99,0,*7E
1499389644.62,65041,17.06,74288.0,1.05,-26.13,-28.31,0,*71
1499389645.82,65042,17.06,74278.8,1.05,-25.61,-27.77,0,*79
1499389647.05,65043,17.0,74268.5,1.05,-25.61,-27.83,0,*73
1499389648.25,65044,17.06,74270.5,1.05,-25.65,-27.77,0,*7B
1499389649.5,65045,17.06,74290.0,1.05,-25.81,-27.83,0,*7B
1499389650.73,65046,17.06,74282.5,1.05,-25.65,-27.61,0,*7E
1499389651.98,65047,17.06,74270.0,1.05,-25.45,-27.35,0,*7C
1499389653.2,65048,17.06,74232.0,1.05,-25.65,-27.45,0,*76
1499389654.43,65049,17.0,74242.3,1.05,-25.75,-27.51,0,*73
1499389655.64,65050,17.06,74268.3,1.05,-25.61,-27.93,0,*70
1499389656.87,65051,17.06,74260.3,1.05,-25.65,-28.21,0,*73
1499389658.13,65052,17.06,74260.8,1.05,-25.75,-28.21,0,*71
1499389659.36,65053,17.06,74262.5,1.05,-25.61,-28.21,0,*75
1499389660.61,65054,17.06,74252.8,1.03,-25.23,-27.83,0,*75
1499389661.86,65055,17.06,74264.0,1.03,-25.03,-27.51,0,*79
1499389663.09,65056,17.06,74274.5,1.05,-24.77,-27.19,0,*72
1499389664.32,65057,17.06,74276.8,1.05,-25.13,-27.35,0,*7E
1499389665.55,65058,17.06,74282.5,1.05,-25.29,-27.51,0,*7A
1499389666.8,65059,17.06,74272.0,1.07,-25.19,-27.45,0,*7F
1499389668.05,65060,17.06,74284.8,1.05,-25.45,-27.61,0,*78
1499389669.28,65061,17.06,74282.3,1.05,-25.49,-27.83,0,*79
1499389670.51,65062,17.0,74284.8,1.05,-25.35,-27.61,0,*7D
1499389671.76,65063,17.06,74288.5,1.07,-25.45,-27.77,0,*7E
1499389672.99,65064,17.06,74272.0,1.05,-25.61,-27.99,0,*7D
1499389674.19,65065,17.0,74270.0,1.05,-25.65,-27.93,0,*72
1499389675.42,65066,17.06,74272.0,1.05,-25.61,-27.83,0,*74
1499389676.66,65067,17.06,74280.3,1.07,-25.49,-27.67,0,*77
1499389677.89,65068,17.06,74276.0,1.07,-25.49,-27.77,0,*79
1499389679.16,65069,17.06,74282.8,1.07,-25.29,-27.45,0,*7F
1499389680.37,65070,17.06,74286.0,1.05,-25.13,-27.51,0,*79
1499389681.62,65071,17.0,74286.3,1.05,-24.67,-26.93,0,*75
1499389682.88,65072,17.06,74286.8,1.07,-24.87,-27.03,0,*72
1499389684.12,65073,17.0,74286.3,1.07,-24.77,-27.03,0,*7C
1499389685.37,65074,17.0,74286.0,1.09,-24.93,-26.97,0,*73
1499389686.62,65075,17.06,74290.0,1.09,-24.77,-26.93,0,*7C
1499389687.84,65076,17.0,74284.5,1.09,-24.93,-27.07,0,*79
1499389689.1,65077,17.06,74284.8,1.11,-24.67,-26.93,0,*76
1499389690.39,65078,17.06,74286.3,1.09,-24.71,-26.93,0,*77
1499389691.62,65079,17.06,74286.3,1.11,-24.57,-26.81,0,*78
1499389692.88,65080,17.06,74286.0,1.13,-24.57,-26.81,0,*7C
1499389694.12,65081,17.06,74284.5,1.13,-24.35,-26.65,0,*73
1499389695.39,65082,17.06,74276.3,1.13,-24.71,-26.87,0,*7C
1499389696.6,65083,17.06,74282.5,1.15,-24.51,-26.65,0,*75
1499389697.85,65084,17.06,74276.5,1.15,-24.47,-26.77,0,*76
1499389699.08,65085,17.0,74272.0,1.15,-24.67,-26.87,0,*7A
1499389700.31,65086,17.06,74276.5,1.15,-24.67,-26.87,0,*79
1499389701.54,65087,17.0,74276.8,1.17,-24.97,-27.13,0,*79
1499389702.81,65088,17.06,74280.8,1.17,-24.87,-27.19,0,*7D
1499389704.07,65089,17.06,74280.0,1.17,-25.03,-27.29,0,*72
1499389705.32,65090,17.0,74278.0,1.17,-25.03,-27.13,0,*73